Content
SEND FEEDBACK

Daily
Averages
Monthly
Summary
United States of America

ARTESIA, NEW MEXICO


Home > North America > United States > New Mexico
Elevation: 3532 feet     Latitude: 32 51N     Longitude: 104 28W

WEATHER
 
SELECT A DAY
Number of Records: 424,934;   Date Range: 8/5/97 - 8/23/14
 
SHARE

PRINT THIS DATA

[ ← Previous Day ]
WEATHER ALMANAC - JANUARY 23, 2013
[ Next Day → ]
[ °C ]   °F
Weather ElementAverageHighLow
Temperature49.3 °F73.4 °F (2:55 pm)28.4 °F (5:55 am)
Dewpoint13.3 °F19.4 °F (10:35 am)10.4 °F (12:55 am)
Humidity26.8 %55 % (4:15 am)9 % (4:35 pm)
Barometer30.21 in30.31 in (10:35 am)30.15 in (4:15 pm)
Wind Speed6.7 mph13.8 mph (5:55 pm)
Weather ElementAverage
Visibility10 mi
Wind DirectionS (183.6 °)

Weather ElementTotal
Precipitation---
Heating Degree Days14.1 (Base 65)
Growing Degree Days0.9 (Base 50)
Averaged from 69 records on January 23, 2013
WEATHER CONDITIONS BREAKOUT
WIND DIRECTION BREAKOUT
WEATHER BY HOUR - JANUARY 23, 2013
[ °C ]   °F
Local TimeTemperatureDewpointHumidityBarometerVisibilityWind DirectionWind SpeedGust SpeedPrecipitationEventsConditions
12:35 AM35.6 °F14.0 °F41 %30.19 in10.0 miWest (270°)10.4 mphClear
12:55 AM39.2 °F10.4 °F31 %30.18 in10.0 miWest (280°)11.5 mphClear
1:15 AM37.4 °F12.2 °F36 %30.18 in10.0 miWNW (300°)8.1 mphClear
1:35 AM39.2 °F10.4 °F31 %30.19 in10.0 miWest (270°)6.9 mphClear
1:55 AM39.2 °F10.4 °F31 %30.18 in10.0 miCalmClear
2:15 AM41.0 °F10.4 °F29 %30.18 in10.0 miNorth (10°)6.9 mphClear
2:35 AM35.6 °F12.2 °F38 %30.19 in10.0 miNorth (10°)5.8 mphClear
2:55 AM33.8 °F10.4 °F38 %30.19 in10.0 miNorth (10°)6.9 mphClear
3:15 AM32.0 °F10.4 °F41 %30.19 in10.0 miNNE (30°)10.4 mphClear
3:35 AM32.0 °F14.0 °F48 %30.20 in10.0 miNNE (30°)10.4 mphClear
3:55 AM32.0 °F15.8 °F51 %30.20 in10.0 miNorth (10°)3.5 mphClear
4:15 AM30.2 °F15.8 °F55 %30.21 in10.0 miNorth (360°)5.8 mphClear
4:35 AM30.2 °F14.0 °F51 %30.21 in10.0 miCalmClear
5:15 AM32.0 °F12.2 °F44 %30.23 in10.0 miNorth (350°)6.9 mphClear
5:35 AM32.0 °F10.4 °F41 %30.23 in10.0 miNNW (330°)4.6 mphClear
5:55 AM28.4 °F10.4 °F47 %30.24 in10.0 miWNW (300°)6.9 mphClear
6:15 AM32.0 °F10.4 °F41 %30.25 in10.0 miNNW (330°)6.9 mphClear
6:35 AM32.0 °F12.2 °F44 %30.25 in10.0 miNNW (340°)5.8 mphClear
6:55 AM28.4 °F14.0 °F55 %30.24 in10.0 miWNW (290°)3.5 mphClear
7:15 AM30.2 °F14.0 °F51 %30.25 in10.0 miNorth (350°)4.6 mphClear
7:35 AM30.2 °F14.0 °F51 %30.26 in10.0 miNorth (350°)3.5 mphClear
7:55 AM35.6 °F14.0 °F41 %30.26 in10.0 miWNW (300°)4.6 mphClear
8:15 AM37.4 °F10.4 °F33 %30.27 in10.0 miNNW (340°)4.6 mphClear
8:35 AM41.0 °F14.0 °F33 %30.28 in10.0 miNW (320°)4.6 mphClear
8:55 AM44.6 °F12.2 °F27 %30.29 in10.0 miWNW (290°)8.1 mphClear
9:15 AM46.4 °F12.2 °F25 %30.30 in10.0 miNW (320°)5.8 mphClear
9:35 AM48.2 °F10.4 °F22 %30.30 in10.0 miNE (40°)5.8 mphClear
9:55 AM50.0 °F14.0 °F24 %30.30 in10.0 miNE (50°)4.6 mphClear
10:15 AM50.0 °F15.8 °F26 %30.30 in10.0 miNE (40°)6.9 mphClear
10:35 AM51.8 °F19.4 °F28 %30.31 in10.0 miNE (50°)6.9 mphClear
10:55 AM51.8 °F19.4 °F28 %30.30 in10.0 miESE (110°)4.6 mphClear
11:15 AM53.6 °F17.6 °F24 %30.28 in10.0 miSE (140°)4.6 mphClear
11:35 AM57.2 °F17.6 °F21 %30.26 in10.0 miSSE (160°)6.9 mphClear
11:55 AM59.0 °F17.6 °F20 %30.24 in10.0 miSSE (160°)9.2 mphClear
12:15 PM60.8 °F17.6 °F19 %30.23 in10.0 miSouth (170°)9.2 mphClear
12:35 PM62.6 °F17.6 °F18 %30.22 in10.0 miSE (140°)6.9 mphClear
12:55 PM64.4 °F15.8 °F15 %30.21 in10.0 miSSE (160°)5.8 mphClear
1:15 PM66.2 °F15.8 °F14 %30.20 in10.0 miSE (130°)9.2 mphClear
1:35 PM68.0 °F12.2 °F12 %30.19 in10.0 miSSE (160°)8.1 mphClear
1:55 PM68.0 °F14.0 °F12 %30.18 in10.0 miSSE (150°)9.2 mphClear
2:15 PM71.6 °F14.0 °F11 %30.18 in10.0 miSSE (160°)9.2 mphClear
2:35 PM71.6 °F15.8 °F12 %30.17 in10.0 miSSE (150°)8.1 mphClear
2:55 PM73.4 °F17.6 °F12 %30.17 in10.0 miSSE (150°)10.4 mphClear
3:15 PM71.6 °F17.6 °F13 %30.16 in10.0 miSSE (150°)9.2 mphClear
3:35 PM73.4 °F17.6 °F12 %30.16 in10.0 miESE (110°)6.9 mphClear
3:55 PM73.4 °F15.8 °F11 %30.16 in10.0 miSSW (200°)3.5 mphClear
4:15 PM73.4 °F14.0 °F10 %30.15 in10.0 miSW (220°)8.1 mphClear
4:35 PM71.6 °F10.4 °F9 %30.15 in10.0 miSSW (210°)10.4 mphClear
4:55 PM68.0 °F14.0 °F12 %30.16 in10.0 miSW (220°)9.2 mphClear
5:15 PM62.6 °F14.0 °F15 %30.16 in10.0 miSW (220°)10.4 mphClear
5:35 PM59.0 °F12.2 °F16 %30.16 in10.0 miSW (220°)11.5 mphClear
5:55 PM55.4 °F14.0 °F20 %30.16 in10.0 miSSW (210°)13.8 mphClear
6:15 PM57.2 °F12.2 °F17 %30.17 in10.0 miSSW (210°)10.4 mphClear
6:35 PM53.6 °F12.2 °F19 %30.17 in10.0 miSSW (200°)12.7 mphClear
6:55 PM51.8 °F14.0 °F22 %30.18 in10.0 miSSW (200°)8.1 mphClear
7:15 PM50.0 °F12.2 °F22 %30.18 in10.0 miSSW (200°)8.1 mphClear
7:35 PM50.0 °F12.2 °F22 %30.18 in10.0 miSSW (210°)8.1 mphClear
7:55 PM53.6 °F12.2 °F19 %30.18 in10.0 miSW (230°)4.6 mphClear
8:15 PM51.8 °F12.2 °F21 %30.19 in10.0 miCalmClear
8:35 PM48.2 °F12.2 °F24 %30.19 in10.0 miCalmClear
8:55 PM48.2 °F12.2 °F24 %30.19 in10.0 miCalmClear
9:15 PM46.4 °F12.2 °F25 %30.20 in10.0 miSSE (150°)3.5 mphClear
9:35 PM50.0 °F10.4 °F20 %30.20 in10.0 miWest (270°)3.5 mphClear
9:55 PM50.0 °F10.4 °F20 %30.21 in10.0 miWest (260°)6.9 mphClear
10:15 PM53.6 °F10.4 °F18 %30.21 in10.0 miWest (280°)5.8 mphClear
10:55 PM50.0 °F10.4 °F20 %30.22 in10.0 miWSW (250°)3.5 mphClear
11:15 PM51.8 °F10.4 °F19 %30.22 in10.0 miCalmClear
11:35 PM46.4 °F12.2 °F25 %30.21 in10.0 miWSW (250°)9.2 mphClear
11:55 PM44.6 °F10.4 °F25 %30.21 in10.0 miWNW (290°)11.5 mphClear
Hourly data recorded from KATS, located miles away from Artesia, New Mexico







STORIES FROM OUR PARTNERS